Registrering Status Plassering
LN-FAW Operativ Ski - ENSI 

Søk
Kontakt informasjon

Follo flyklubb.
Postboks 226, N-1401 Ski
Epost: post@follo-flyklubb.no

Tel: 47 25 54 90
Du er her: Hovedside

Velkommen til Follo flyklubb

 

Follo flyklubb er en flyklubb med primærbase på Ski flyplass, og sekundærbase (vinterbase) på Rakkestad flyplass. Disse websidene er ment som en informasjonskanal til flyklubbens medlemmer, og andre som måtte være interessert i Follo flyklubbs virksomhet. Har du kommentarer eller bidrag du ønsker å dele med flyklubben, send oss en melding her.

Har noen av flyklubbens medlemmer forslag til turer, aktiviteter eller kurs- og infokvelder dere ønsker at vi deltar på eller avholder, så gi beskjed til styret via epost.

 

Før flyturen: Ta en sjekk på datoer i sertifikatene dine. Husk at det er forskjell på gyldighetsdato for PPL-sertifikatet og klasserettighet, som f.eks. SEP. Her er noen nyttige spørsmål, og litt om rettigheter her.

ENGM 160750Z VRB02KT 9999 BKN003 04/04 Q1018 BECMG SCT004
ENTO 160750Z 01006KT 330V070 3000 BR VV004 06/06 Q1018
ENRY 160750Z 03006KT 9999 BKN004 07/07 Q1018 TEMPO BKN006
ENSN 090850Z 20010G22KT 150V240 CAVOK 07/03 Q1000
ENCN 160750Z 02003KT 330V080 9999 SCT009 BKN012 06/05 Q1018
ENZV 160750Z VRB02KT CAVOK 06/05 Q1016 BECMG 16012KT
ENFL 160750Z 12007KT CAVOK 09/03 Q1015
ENFG 220850Z 19007KT CAVOK 06/M03 Q1014
ENNO 160750Z VRB02KT CAVOK 02/01 Q1020
 

Leie av LN-FAW

Follo flyklubbs medlemmer har anledning til å leie LN-FAW, booking skjer via MyWebLog. Husk å loggføre turen etter turen.